Regional Weather Roundup
Issued by NWS Newport/Morehead, NC

Home | Current Version | Previous Version | Text Only | Print | Product List | Glossary On
Versions: 1 2 3 4 5 6 7 8 9 10 11 12 13 14 15 16 17 18 19 20 21 22 23 24 25 26 27 28 29 30 31 32 33 34 35 36 37 38 39 40 41 42 43 44 45 46 47 48 49 50
000
ASUS42 KMHX 221922
RWRMHX
WEATHER ROUNDUP FOR EASTERN NORTH CAROLINA
NATIONAL WEATHER SERVICE NEWPORT/MOREHEAD CITY NC
300 PM EDT FRI AUG 22 2014

NOTE: "FAIR" INDICATES FEW OR NO CLOUDS BELOW 12,000 FEET
WITH NO SIGNIFICANT WEATHER AND/OR OBSTRUCTIONS TO VISIBILITY

NCZ015>017-031-032-045>047-102-103-222000-
NORTH COAST

CITY           SKY/WX    TMP DP  RH WIND       PRES   REMARKS
EDENTON        PTSUNNY   85  72  64 NW6       29.95F
ELIZABETH CITY LGT RAIN  85  70  60 NW6       29.94F
KITTY HAWK     MOCLDY    85  71  62 W8        29.92F
MANTEO         PTSUNNY   84  72  65 NW8       29.93F

$$

NCZ045>047-081-094-103-104-222000-
CENTRAL COAST

CITY           SKY/WX    TMP DP  RH WIND       PRES   REMARKS
FRISCO         MOSUNNY   85  75  72 W7G16     29.94F
SWANQUARTER      N/A     90 N/A N/A W10G18    29.91S

$$

NCZ095-097-098-100-101-222000-
SOUTHERN COAST

CITY           SKY/WX    TMP DP  RH WIND       PRES   REMARKS
BEAUFORT       MOSUNNY   90  77  65 SW12      29.95F HX 103
CEDAR ISLAND     N/A     90 N/A N/A NW14      29.97F
JACKSONVILLE   MOSUNNY   94  69  44 NW9       29.96F
NEWPORT        NOT AVBL
PINEY ISLAND   PTCLDY    92  75  57 W10       29.94F HX 103
WILMINGTON     MOSUNNY   95  72  47 W13       29.97F HX 103


$$

NCZ011>013-027>030-043-044-078>080-089-090>093-098-222000-
COASTAL PLAIN

CITY           SKY/WX    TMP DP  RH WIND       PRES   REMARKS
AHOSKIE        CLOUDY    82  72  70 CALM      29.96F
CLINTON        PTSUNNY   92  75  56 N3        29.97F HX 103
ELIZABETHTOWN  MOSUNNY   94  67  40 W5        29.97F
GOLDSBORO      MOSUNNY   91  77  64 NW8       29.95F HX 104
GREENVILLE     MOSUNNY   90  73  58 N5        29.98F
HAVELOCK       MOSUNNY   94  72  48 NW14      29.96F HX 102
KENANSVILLE    MOSUNNY   90  70  51 N7        29.99S
KINSTON        MOSUNNY   90  72  55 NW10      29.98F
NEW BERN       MOSUNNY   94  73  50 NW9G17    29.97F HX 103
RICHLANDS      MOSUNNY   90  70  51 CALM      29.96F
ROANOKE RAPIDS NOT AVBL
ROCKY MOUNT    PTSUNNY   89  70  53 NW9       29.98F
WASHINGTON     MOSUNNY   89  72  56 W9        29.95F
WHITEVILLE     SUNNY     93  71  48 CALM      29.97F

$$

AMZ130-135-150-152-154-156-158-170-250-252-270-ANZ085-086-088-633-658-670-222000-
MARINE OBSERVATIONS

STATION/POSITION TIME  TEMP    WIND        PRES    WAVE   SWELL
                       AIR SEA DIR/SP/G            HT/PER HT/PER
                 (UTC) (F)     (DEG/KT/KT) (MB)    (FT/S) (FT/S)
CHESAPEAKE LIGHT 1900   78     340/ 12/ 12 1014.6
BUOY 44014       1900   78 79  330/ 12/ 12 1013.0    2/ 7   2/ 7
DUCK             1900   84 80   10/  5/  6 1013.0
2E DUCK          1900                        N/A     1/ 7
OREGON INLET     1900   85 84  300/  7/  9 1013.4
BUOY 44095       1900      80                N/A     2/ 8
20E OREGON INLET NOT AVBL
HATTERAS CG      1900   85 83  280/ 12/ 13 1014.3
DIAMOND BUOY     1900   81     260/ 10/ 14 1013.8    2/ 8   2/ 8
CAPE LOOKOUT     1900   85     230/ 11/ 12 1014.2
BEAUFORT LAB     1900   89 83  230/  6/ 10 1013.9
30 SE NEW RIVER  1900   84 84  240/  8/ 10 1014.6    1/ 4   2/ 5
5 SE WRIGHTSVILL 1900   83 85  200/ 10/ 10   N/A
BUOY 41002       1830   82 83  250/ 14/ 17 1016.6    2/ 9   2/ 9
BUOY 41004       1900   85 87  180/  6/  8 1015.6    2/ 9   2/ 9

$$


USA.gov is the U.S. government's official web portal to all federal, state and local government web resources and services.